Terminal Aerodrome Forecast
Issued by NWS

Home | Current Version | Previous Version | Text Only | Print | Product List | Glossary On
Versions: 1 2 3 4 5 6 7 8 9 10 11 12 13 14 15 16 17 18 19 20 21 22 23 24 25 26 27 28 29 30 31 32 33 34 35 36 37 38 39 40 41 42 43
000
FTAK31 PANC 190531
TAFADL
TAF
PADL 190531Z 1906/2006 34013G22KT P6SM SCT060 BKN100
      AMD LTD TO CLD VIS AND WIND 1907/1916=

USA.gov is the U.S. government's official web portal to all federal, state and local government web resources and services.